Time,TemperatureF,DewpointF,PressureIn,WindDirection,WindDirectionDegrees,WindSpeedMPH,WindSpeedGustMPH,Humidity,HourlyPrecipIn,Conditions,Clouds,dailyrainin,SoftwareType,DateUTC
2013-03-07 00:00:00,35.3,28.5,29.87,NNE,29,0.0,5.0,76,0.00,RA,SKC,0.00,WeatherDisplay:10.37,2013-03-07 05:00:00,
2013-03-07 00:15:00,35.5,28.7,29.86,NNE,20,0.0,6.0,76,0.00,,SKC,0.00,WeatherDisplay:10.37,2013-03-07 05:15:00,
2013-03-07 00:30:00,35.5,28.4,29.86,NNE,14,1.0,9.0,75,0.00,,SKC,0.00,WeatherDisplay:10.37,2013-03-07 05:30:00,
2013-03-07 00:45:00,35.3,28.5,29.86,NNE,20,1.0,8.0,76,0.00,,SKC,0.00,WeatherDisplay:10.37,2013-03-07 05:45:00,
2013-03-07 01:00:00,34.9,29.4,29.87,NNE,21,2.0,10.0,80,0.00,,SKC,0.00,WeatherDisplay:10.37,2013-03-07 06:00:00,
2013-03-07 01:15:00,34.1,29.8,29.87,NNE,16,2.0,6.0,84,0.00,,SKC,0.00,WeatherDisplay:10.37,2013-03-07 06:15:00,
2013-03-07 01:30:00,33.4,29.9,29.87,NNE,18,1.0,5.0,87,0.00,,SKC,0.00,WeatherDisplay:10.37,2013-03-07 06:30:00,
2013-03-07 01:45:00,32.9,30.0,29.87,NNE,28,1.0,6.0,89,0.00,,SKC,0.00,WeatherDisplay:10.37,2013-03-07 06:45:00,
2013-03-07 02:00:00,32.7,30.4,29.86,NNE,27,0.0,3.0,91,0.00,,SKC,0.00,WeatherDisplay:10.37,2013-03-07 07:00:00,
2013-03-07 02:15:00,32.5,30.4,29.85,NNE,17,1.0,3.0,92,0.00,,SKC,0.00,WeatherDisplay:10.37,2013-03-07 07:15:00,
2013-03-07 02:30:00,32.4,30.3,29.85,North,10,0.0,4.0,92,0.00,,SKC,0.00,WeatherDisplay:10.37,2013-03-07 07:30:00,
2013-03-07 02:45:00,32.2,30.1,29.84,North,7,1.0,4.0,92,0.00,,SKC,0.00,WeatherDisplay:10.37,2013-03-07 07:45:00,
2013-03-07 03:00:00,32.1,30.3,29.84,North,11,2.0,6.0,93,0.00,,SKC,0.00,WeatherDisplay:10.37,2013-03-07 08:00:00,
2013-03-07 03:15:00,31.9,30.1,29.84,NNE,29,1.0,6.0,93,0.00,,SKC,0.00,WeatherDisplay:10.37,2013-03-07 08:15:00,
2013-03-07 03:30:00,31.9,30.1,29.85,NNE,25,0.0,4.0,93,0.00,,SKC,0.00,WeatherDisplay:10.37,2013-03-07 08:30:00,
2013-03-07 03:45:00,31.9,30.1,29.85,NNE,30,0.0,3.0,93,0.00,,SKC,0.00,WeatherDisplay:10.37,2013-03-07 08:45:00,
2013-03-07 04:00:00,31.9,30.1,29.86,North,11,0.0,3.0,93,0.00,,SKC,0.00,WeatherDisplay:10.37,2013-03-07 09:00:00,
2013-03-07 04:30:00,31.9,29.8,29.86,NNE,15,0.0,5.0,92,0.00,,SKC,0.00,WeatherDisplay:10.37,2013-03-07 09:30:00,
2013-03-07 04:45:00,32.1,29.8,29.86,NNE,26,0.0,4.0,91,0.00,,SKC,0.00,WeatherDisplay:10.37,2013-03-07 09:45:00,
2013-03-07 05:00:00,32.1,29.5,29.86,NE,35,1.0,6.0,90,0.00,,SKC,0.00,WeatherDisplay:10.37,2013-03-07 10:00:00,
2013-03-07 05:15:00,32.2,29.0,29.86,North,358,0.0,5.0,88,0.00,,SKC,0.00,WeatherDisplay:10.37,2013-03-07 10:15:00,
2013-03-07 05:30:00,32.2,28.5,29.87,NNE,16,0.0,4.0,86,0.00,,SKC,0.00,WeatherDisplay:10.37,2013-03-07 10:30:00,
2013-03-07 05:45:00,32.4,28.4,29.88,NNE,30,1.0,3.0,85,0.00,,SKC,0.00,WeatherDisplay:10.37,2013-03-07 10:45:00,
2013-03-07 06:00:00,32.4,28.4,29.88,North,8,1.0,5.0,85,0.00,,SKC,0.00,WeatherDisplay:10.37,2013-03-07 11:00:00,
2013-03-07 06:15:00,32.2,28.5,29.89,NE,39,0.0,4.0,86,0.00,,SKC,0.00,WeatherDisplay:10.37,2013-03-07 11:15:00,
2013-03-07 06:30:00,32.1,28.7,29.89,NNE,28,1.0,5.0,87,0.00,,SKC,0.00,WeatherDisplay:10.37,2013-03-07 11:30:00,
2013-03-07 06:45:00,31.9,28.8,29.89,NNE,26,1.0,6.0,88,0.00,,SKC,0.00,WeatherDisplay:10.37,2013-03-07 11:45:00,
2013-03-07 07:00:00,31.8,28.7,29.90,NE,39,1.0,3.0,88,0.00,,SKC,0.00,WeatherDisplay:10.37,2013-03-07 12:00:00,
2013-03-07 07:15:00,31.6,28.5,29.90,North,8,1.0,3.0,88,0.00,,SKC,0.00,WeatherDisplay:10.37,2013-03-07 12:15:00,
2013-03-07 07:30:00,31.6,28.7,29.90,North,351,0.0,5.0,89,0.00,,SKC,0.00,WeatherDisplay:10.37,2013-03-07 12:30:00,
2013-03-07 07:45:00,31.6,28.7,29.91,NNE,17,1.0,3.0,89,0.00,,SKC,0.00,WeatherDisplay:10.37,2013-03-07 12:45:00,
2013-03-07 08:00:00,31.8,28.7,29.91,NNE,15,1.0,7.0,88,0.00,,SKC,0.00,WeatherDisplay:10.37,2013-03-07 13:00:00,
2013-03-07 08:15:00,31.8,28.7,29.91,NNE,17,0.0,4.0,88,0.00,,SKC,0.00,WeatherDisplay:10.37,2013-03-07 13:15:00,
2013-03-07 08:30:00,31.6,28.5,29.90,NNE,14,2.0,5.0,88,0.00,,SKC,0.00,WeatherDisplay:10.37,2013-03-07 13:30:00,
2013-03-07 08:45:00,31.6,28.7,29.90,NNE,28,1.0,4.0,89,0.00,,SKC,0.00,WeatherDisplay:10.37,2013-03-07 13:45:00,
2013-03-07 09:00:00,31.8,29.2,29.91,NNE,32,1.0,3.0,90,0.00,,SKC,0.00,WeatherDisplay:10.37,2013-03-07 14:00:00,
2013-03-07 09:15:00,32.1,29.5,29.90,NNE,16,1.0,5.0,90,0.00,,SKC,0.00,WeatherDisplay:10.37,2013-03-07 14:15:00,
2013-03-07 09:30:00,32.4,29.8,29.90,NE,36,2.0,6.0,90,0.01,RA,SKC,0.01,WeatherDisplay:10.37,2013-03-07 14:30:00,
2013-03-07 09:45:00,32.7,29.8,29.90,NNE,26,2.0,7.0,89,0.00,,SKC,0.01,WeatherDisplay:10.37,2013-03-07 14:45:00,
2013-03-07 10:00:00,33.1,29.9,29.89,NNE,16,2.0,6.0,88,0.00,,SKC,0.02,WeatherDisplay:10.37,2013-03-07 15:00:00,
2013-03-07 10:15:00,33.4,29.7,29.89,NNE,30,2.0,5.0,86,0.00,,SKC,0.03,WeatherDisplay:10.37,2013-03-07 15:15:00,
2013-03-07 10:30:00,33.5,29.2,29.89,NNE,18,2.0,6.0,84,0.00,,SKC,0.03,WeatherDisplay:10.37,2013-03-07 15:30:00,
2013-03-07 10:45:00,33.8,28.9,29.89,NNE,16,2.0,8.0,82,0.00,,SKC,0.03,WeatherDisplay:10.37,2013-03-07 15:45:00,
2013-03-07 11:00:00,34.1,28.6,29.90,NNE,17,1.0,8.0,80,0.00,,SKC,0.03,WeatherDisplay:10.37,2013-03-07 16:00:00,
2013-03-07 11:15:00,34.4,28.6,29.90,NE,40,3.0,9.0,79,0.00,,SKC,0.04,WeatherDisplay:10.37,2013-03-07 16:15:00,
2013-03-07 11:30:00,34.7,28.2,29.90,NNE,21,2.0,6.0,77,0.00,,SKC,0.04,WeatherDisplay:10.37,2013-03-07 16:30:00,
2013-03-07 11:45:00,35.2,28.4,29.90,NNE,19,2.0,8.0,76,0.00,,SKC,0.04,WeatherDisplay:10.37,2013-03-07 16:45:00,
2013-03-07 12:00:00,35.6,28.5,29.90,NNE,19,2.0,7.0,75,0.00,,SKC,0.04,WeatherDisplay:10.37,2013-03-07 17:00:00,
2013-03-07 12:15:00,36.0,28.2,29.90,NNE,15,2.0,8.0,73,0.00,,SKC,0.04,WeatherDisplay:10.37,2013-03-07 17:15:00,
2013-03-07 12:30:00,36.5,29.0,29.89,NNE,18,1.0,7.0,74,0.00,,SKC,0.04,WeatherDisplay:10.37,2013-03-07 17:30:00,
2013-03-07 12:45:00,36.3,30.1,29.90,NNE,12,1.0,6.0,78,0.00,,SKC,0.04,WeatherDisplay:10.37,2013-03-07 17:45:00,
2013-03-07 13:00:00,35.9,30.6,29.90,NNE,20,0.0,7.0,81,0.00,,SKC,0.04,WeatherDisplay:10.37,2013-03-07 18:00:00,
2013-03-07 13:15:00,35.8,31.1,29.90,North,11,0.0,4.0,83,0.00,,SKC,0.05,WeatherDisplay:10.37,2013-03-07 18:15:00,
2013-03-07 13:30:00,35.6,31.5,29.90,North,6,1.0,5.0,85,0.00,,SKC,0.05,WeatherDisplay:10.37,2013-03-07 18:30:00,
2013-03-07 13:45:00,35.6,31.5,29.90,NNE,20,0.0,4.0,85,0.00,,SKC,0.05,WeatherDisplay:10.37,2013-03-07 18:45:00,
2013-03-07 14:00:00,35.6,31.8,29.90,NNE,13,0.0,3.0,86,0.00,,SKC,0.05,WeatherDisplay:10.37,2013-03-07 19:00:00,
2013-03-07 14:15:00,35.5,32.0,29.90,North,3,0.0,3.0,87,0.00,,SKC,0.05,WeatherDisplay:10.37,2013-03-07 19:15:00,
2013-03-07 14:30:00,35.3,31.8,29.90,NNE,22,0.0,7.0,87,0.00,,SKC,0.05,WeatherDisplay:10.37,2013-03-07 19:30:00,
2013-03-07 14:45:00,35.3,32.1,29.90,North,10,1.0,3.0,88,0.00,,SKC,0.05,WeatherDisplay:10.37,2013-03-07 19:45:00,
2013-03-07 15:00:00,35.5,32.0,29.90,NNE,15,0.0,4.0,87,0.00,,SKC,0.05,WeatherDisplay:10.37,2013-03-07 20:00:00,
2013-03-07 15:15:00,35.6,31.8,29.90,NNE,21,0.0,6.0,86,0.00,,SKC,0.05,WeatherDisplay:10.37,2013-03-07 20:15:00,
2013-03-07 15:30:00,35.9,31.8,29.90,NE,39,1.0,3.0,85,0.00,,SKC,0.05,WeatherDisplay:10.37,2013-03-07 20:30:00,
2013-03-07 15:45:00,35.9,31.2,29.91,NNE,16,1.0,7.0,83,0.00,,SKC,0.05,WeatherDisplay:10.37,2013-03-07 20:45:00,
2013-03-07 16:00:00,35.9,31.5,29.91,NNW,342,1.0,4.0,84,0.00,,SKC,0.05,WeatherDisplay:10.37,2013-03-07 21:00:00,
2013-03-07 16:15:00,35.6,31.5,29.91,ENE,60,0.0,2.0,85,0.00,,SKC,0.05,WeatherDisplay:10.37,2013-03-07 21:15:00,
2013-03-07 16:30:00,35.5,31.7,29.91,NNE,20,0.0,3.0,86,0.00,,SKC,0.05,WeatherDisplay:10.37,2013-03-07 21:30:00,
2013-03-07 16:45:00,35.5,31.7,29.91,North,10,0.0,2.0,86,0.00,,SKC,0.06,WeatherDisplay:10.37,2013-03-07 21:45:00,
2013-03-07 17:00:00,35.3,31.5,29.91,North,8,0.0,2.0,86,0.00,,SKC,0.06,WeatherDisplay:10.37,2013-03-07 22:00:00,
2013-03-07 17:15:00,35.3,31.5,29.92,North,356,0.0,2.0,86,0.00,,SKC,0.06,WeatherDisplay:10.37,2013-03-07 22:15:00,
2013-03-07 17:30:00,35.3,31.5,29.93,NNW,346,0.0,5.0,86,0.00,,SKC,0.06,WeatherDisplay:10.37,2013-03-07 22:30:00,
2013-03-07 17:45:00,35.0,31.5,29.93,NE,37,0.0,2.0,87,0.00,,SKC,0.06,WeatherDisplay:10.37,2013-03-07 22:45:00,
2013-03-07 18:00:00,34.7,31.2,29.93,North,9,1.0,2.0,87,0.00,,SKC,0.07,WeatherDisplay:10.37,2013-03-07 23:00:00,
2013-03-07 18:15:00,34.4,31.5,29.93,North,6,0.0,6.0,89,0.00,,SKC,0.07,WeatherDisplay:10.37,2013-03-07 23:15:00,
2013-03-07 18:30:00,34.1,31.5,29.94,NNW,348,0.0,2.0,90,0.00,,SKC,0.07,WeatherDisplay:10.37,2013-03-07 23:30:00,
2013-03-07 18:45:00,33.8,31.5,29.94,North,349,0.0,1.0,91,0.00,,SKC,0.07,WeatherDisplay:10.37,2013-03-07 23:45:00,
2013-03-07 19:00:00,33.7,31.6,29.94,North,357,0.0,2.0,92,0.00,,SKC,0.08,WeatherDisplay:10.37,2013-03-08 00:00:00,
2013-03-07 19:15:00,33.7,31.6,29.94,NNE,19,0.0,2.0,92,0.00,,SKC,0.09,WeatherDisplay:10.37,2013-03-08 00:15:00,
2013-03-07 19:30:00,33.8,32.0,29.93,North,6,0.0,2.0,93,0.00,,SKC,0.09,WeatherDisplay:10.37,2013-03-08 00:30:00,
2013-03-07 19:45:00,33.8,32.0,29.93,North,0,0.0,1.0,93,0.00,,SKC,0.10,WeatherDisplay:10.37,2013-03-08 00:45:00,
2013-03-07 20:00:00,33.8,32.0,29.93,North,0,0.0,0.0,93,0.00,,SKC,0.10,WeatherDisplay:10.37,2013-03-08 01:00:00,
2013-03-07 20:15:00,33.7,31.9,29.93,NNW,347,0.0,1.0,93,0.00,,SKC,0.11,WeatherDisplay:10.37,2013-03-08 01:15:00,
2013-03-07 20:30:00,33.4,31.9,29.93,North,11,0.0,2.0,94,0.00,,SKC,0.11,WeatherDisplay:10.37,2013-03-08 01:30:00,
2013-03-07 20:45:00,33.2,31.7,29.93,NNW,347,0.0,1.0,94,0.00,,SKC,0.11,WeatherDisplay:10.37,2013-03-08 01:45:00,
2013-03-07 21:00:00,33.1,31.6,29.92,NNW,334,0.0,1.0,94,0.00,,SKC,0.11,WeatherDisplay:10.37,2013-03-08 02:00:00,
2013-03-07 21:15:00,33.1,31.6,29.92,NNW,342,0.0,1.0,94,0.00,,SKC,0.11,WeatherDisplay:10.37,2013-03-08 02:15:00,
2013-03-07 21:30:00,32.9,31.4,29.91,NNW,334,0.0,0.0,94,0.00,,SKC,0.11,WeatherDisplay:10.37,2013-03-08 02:30:00,
2013-03-07 21:45:00,32.8,31.3,29.91,NNW,344,0.0,0.0,94,0.00,,SKC,0.11,WeatherDisplay:10.37,2013-03-08 02:45:00,
2013-03-07 22:00:00,32.8,31.3,29.91,North,358,0.0,1.0,94,0.00,,SKC,0.11,WeatherDisplay:10.37,2013-03-08 03:00:00,
2013-03-07 22:15:00,32.8,31.3,29.90,NNE,14,0.0,1.0,94,0.00,,SKC,0.11,WeatherDisplay:10.37,2013-03-08 03:15:00,
2013-03-07 22:30:00,32.7,31.2,29.90,NNW,327,0.0,0.0,94,0.00,,SKC,0.11,WeatherDisplay:10.37,2013-03-08 03:30:00,
2013-03-07 22:45:00,32.7,31.2,29.90,NNW,335,0.0,0.0,94,0.00,,SKC,0.11,WeatherDisplay:10.37,2013-03-08 03:45:00,
2013-03-07 23:00:00,32.7,31.2,29.89,North,358,0.0,0.0,94,0.00,,SKC,0.11,WeatherDisplay:10.37,2013-03-08 04:00:00,
2013-03-07 23:15:00,32.5,31.0,29.89,NNW,336,0.0,0.0,94,0.00,,SKC,0.11,WeatherDisplay:10.37,2013-03-08 04:15:00,
2013-03-07 23:30:00,32.5,31.0,29.89,North,6,0.0,0.0,94,0.00,,SKC,0.11,WeatherDisplay:10.37,2013-03-08 04:30:00,
2013-03-07 23:45:00,32.5,31.2,29.89,NW,323,0.0,0.0,95,0.00,,SKC,0.11,WeatherDisplay:10.37,2013-03-08 04:45:00,